Location: Lecco
(45.8566°N, 9.3977°E)
Time: 08:05:52
(UTC+02:00)

Altair - Pass Details

Date: 15 August 2020
Orbit: 1501 x 1682 km, 47.2° (Epoch: 25 September)

Event Time Altitude Azimuth Distance (km) Brightness Sun altitude
Rises 07:04:43 0° 285° (WNW) 4,744 9.5 6.1°
Reaches altitude 10° 07:07:49 10° 285° (WNW) 3,737 9.0 6.7°
Maximum altitude 07:17:15 85° 199° (SSW) 1,526 7.7 8.3°
Drops below altitude 10° 07:26:26 10° 112° (ESE) 3,649 10.7 9.8°
Sets 07:29:26 0° 112° (ESE) 4,628 11.1 10.4°
